Home   Weather   USA   Olean   Past weeks
Flag for USA

Past Weather in Olean, New York, USA — Yesterday and Last 2 Weeks

Currently: 43 °F. Overcast. (Weather station: Olean Municipal, USA). See more current weather

Past Weather in Olean — Graph

°F

Olean Temperature Yesterday

Maximum temperature yesterday: 52 °F (at 11:35 am)
Minimum temperature yesterday: 45 °F (at 4:15 am)
Average temperature yesterday: 48 °F

High & Low Weather Summary for the Past Weeks

 TemperatureHumidityPressure
High73 °F (Sep 17, 3:15 pm)100% (Sep 14, 8:35 am)30.48 "Hg (Sep 14, 8:35 am)
Low34 °F (Sep 23, 6:55 am)48% (Sep 24, 2:15 pm)29.57 "Hg (Sep 25, 1:35 pm)
Average54 °F89%30.02 "Hg
* Reported Sep 14 8:35 am — Sep 29 8:55 am, Olean. Weather by CustomWeather, © 2022

Note: Actual official high and low records may vary slightly from our data, if they occured in-between our weather recording intervals... More about our weather records

Olean Weather History for the Previous 24 Hours

Scroll right to see more
 ConditionsComfort  
Time TempWeatherWind HumidityBarometerVisibility
8:55 am
Thu, Sep 29
43 °FMore clouds than sun.6 mph100%30.48 "Hg10 mi
8:35 am43 °FMostly cloudy.3 mph100%30.47 "Hg10 mi
8:15 am43 °FLow clouds.3 mph100%30.46 "Hg10 mi
7:55 am43 °FLow clouds.3 mph100%30.46 "Hg10 mi
7:35 am43 °FLow clouds.3 mph100%30.45 "Hg10 mi
7:15 am43 °FLow clouds.5 mph100%30.44 "Hg10 mi
6:35 am43 °FLow clouds.8 mph100%30.44 "Hg10 mi
5:55 am43 °FLow clouds.3 mph100%30.43 "Hg10 mi
5:15 am43 °FMostly cloudy.5 mph100%30.42 "Hg10 mi
4:55 am43 °FOvercast.6 mph100%30.41 "Hg10 mi
4:35 am43 °FOvercast.5 mph100%30.41 "Hg10 mi
4:15 am43 °FOvercast.3 mph100%30.41 "Hg10 mi
3:35 am43 °FOvercast.3 mph100%30.41 "Hg10 mi
2:55 am43 °FOvercast.No wind100%30.41 "Hg10 mi
2:35 am45 °FOvercast.No wind100%30.41 "Hg10 mi
1:55 am43 °FOvercast.No wind100%30.41 "Hg10 mi
1:35 am45 °FOvercast.3 mph100%30.41 "Hg10 mi
1:15 am45 °FOvercast.5 mph100%30.41 "Hg10 mi
12:55 am43 °FOvercast.3 mph100%30.40 "Hg10 mi
12:35 am43 °FOvercast.3 mph100%30.40 "Hg10 mi
12:15 am45 °FOvercast.3 mph100%30.40 "Hg10 mi
11:35 pm
Wed, Sep 28
45 °FOvercast.3 mph100%30.40 "Hg10 mi
11:15 pm45 °FOvercast.3 mph100%30.39 "Hg10 mi
10:35 pm45 °FOvercast.No wind100%30.38 "Hg10 mi
9:35 pm45 °FOvercast.5 mph100%30.37 "Hg10 mi
9:15 pm45 °FOvercast.3 mph100%30.36 "Hg10 mi
8:55 pm45 °FOvercast.3 mph100%30.36 "Hg10 mi
7:35 pm46 °FMostly cloudy.6 mph100%30.33 "Hg10 mi
6:35 pm46 °FMostly cloudy.6 mph100%30.30 "Hg10 mi
6:15 pm48 °FMostly cloudy.8 mph100%30.30 "Hg10 mi
5:55 pm48 °FCloudy.5 mph100%30.29 "Hg10 mi
5:35 pm50 °FMostly cloudy.7 mph100%30.28 "Hg10 mi
5:15 pm50 °FCloudy.8 mph100%30.28 "Hg10 mi
4:55 pm50 °FCloudy.8 mph100%30.28 "Hg10 mi
4:35 pm50 °FCloudy.7 mph100%30.27 "Hg10 mi
4:15 pm52 °FMostly cloudy.9 mph100%30.26 "Hg10 mi
3:35 pm50 °FMostly cloudy.5 mph100%30.25 "Hg10 mi
2:55 pm48 °FCloudy.5 mph100%30.25 "Hg10 mi
2:35 pm50 °FLight rain. Cloudy.9 mph100%30.25 "Hg10 mi
1:55 pm52 °FCloudy.6 mph100%30.24 "Hg10 mi
1:35 pm52 °FMostly cloudy.7 mph94%30.23 "Hg10 mi
12:55 pm52 °FMostly cloudy.5 mph94%30.22 "Hg10 mi
12:35 pm52 °FCloudy.3 mph94%30.21 "Hg10 mi
12:15 pm52 °FMostly cloudy.9 mph100%30.21 "Hg10 mi
11:55 am50 °FCloudy.5 mph100%30.21 "Hg7 mi
11:35 am52 °FCloudy.3 mph100%30.20 "Hg10 mi
11:15 am50 °FMore clouds than sun.5 mph100%30.20 "Hg10 mi
10:35 am50 °FMostly cloudy.3 mph100%30.18 "Hg10 mi
10:15 am48 °FLow clouds.6 mph100%30.18 "Hg10 mi
Weather by CustomWeather, © 2022

See weather overview